Overview Statistics Trail Chart Weather Telemetry Raw packets
 

This is the latest recevied weather packets stored in our database for station/object DG6YGE-6. If no packets are shown the sender has not sent any weather packets the latest 10 day(s).

<< 6 7 8 9 10 11 12 >>
Time Temp. Humidity Pressure Rain* Wind** Luminosity Snow
1788549550 16.67° C 91% 1011.1 hPa 0 mm - 0 W/m² -
1788548950 16.67° C 91% 1011 hPa 0 mm - 0 W/m² -
1788548350 16.67° C 91% 1010.9 hPa 0 mm - 0 W/m² -
1788547750 16.67° C 92% 1010.8 hPa 0 mm - 0 W/m² -
1788547150 16.67° C 92% 1010.5 hPa 0 mm - 0 W/m² -
1788546550 16.67° C 92% 1010.5 hPa 0 mm - 0 W/m² -
1788545950 17.78° C 94% 1010.1 hPa 0 mm - 0 W/m² -
1788545350 17.78° C 94% 1010 hPa 0 mm - 0 W/m² -
1788544750 17.78° C 94% 1009.7 hPa 0 mm - 0 W/m² -
1788544150 17.78° C 94% 1009.9 hPa 0 mm - 5 W/m² -
1788542950 17.78° C 94% 1009.4 hPa 0 mm - 17 W/m² -
1788542350 17.78° C 94% 1009.4 hPa 0 mm - 26 W/m² -
1788541750 17.78° C 94% 1009.2 hPa 0.25 mm - 50 W/m² -
1788541150 17.78° C 94% 1009.1 hPa 0.25 mm - 52 W/m² -
1788540550 17.78° C 94% 1008.9 hPa 0.25 mm - 65 W/m² -
1788539950 17.78° C 94% 1008.8 hPa 0.25 mm - 78 W/m² -
1788539350 17.78° C 94% 1008.9 hPa 1.02 mm - 58 W/m² -
1788538750 17.78° C 94% 1008.7 hPa 1.78 mm - 76 W/m² -
1788538150 17.78° C 94% 1008.7 hPa 2.29 mm - 72 W/m² -
1788537550 17.78° C 94% 1008.7 hPa 3.05 mm - 84 W/m² -
1788536950 17.78° C 94% 1008.4 hPa 4.32 mm - 84 W/m² -
1788536350 17.78° C 94% 1008.2 hPa 4.83 mm - 80 W/m² -
1788535750 17.78° C 94% 1008.2 hPa 4.32 mm - 68 W/m² -
1788535150 17.78° C 94% 1008 hPa 3.56 mm - 24 W/m² -
1788534550 17.78° C 94% 1008.1 hPa 2.79 mm - 42 W/m² -

* Rain latest hour (hover to see other rain measurements)
** Current wind speed in m/s (hover to see current wind gust speed)